{"data":{"norad_id":52537,"intl_designator":"2022-051E","name":"STARLINK-3897","alt_names":[],"object_type":"PAYLOAD","status":"ACTIVE","operator":null,"country":"US","launch_date":"2022-05-13","launch_site_code":"AFWTR","launch_vehicle":null,"mission":null,"orbit_class":"UNKNOWN","rcs_meters":null,"size_class":null,"mass_kg":null,"dimensions":null,"purposes":["comms"],"wikipedia_slug":null,"has_3d_model":false,"image_url":null,"decayed_at":null,"tle_current":{"epoch":"2026-09-20T04:41:27.197952Z","epoch_age_seconds":89670,"freshness":"FRESH","line1":"1 52537U 22051E   26263.19545368  .00000919  00000+0  38329-4 0  9999","line2":"2 52537  53.1601 323.4970 0001356  91.7864 268.3294 15.34392459240979","mean_motion":15.34392459,"eccentricity":0.0001356,"inclination_deg":53.1601,"raan_deg":323.497,"arg_perigee_deg":91.7864,"mean_anomaly_deg":268.3294,"bstar":3.8329e-5,"rev_number":24097,"period_min":93.848219310103,"perigee_km":461.79803276425,"apogee_km":463.65327471594,"semimajor_km":6840.8626537401,"source":"CELESTRAK","updated_at":"2026-09-20T09:00:40.058421Z"}}}